| time (UTC) | temp F | wind direction | speed MPH | gust MPH | rain 1hr in | rain 24hr in | rain mn in | humidity % | barometer mb |
| 20260507010542 | 49 | 335 | 4.0 | 10.0 | 0.00 | 0.46 | 0.46 | 96 | 1004.5 |
| 20260507010057 | 49 | 310 | 5.0 | 10.0 | 0.00 | 0.46 | 0.46 | 96 | 1004.7 |
| 20260507005542 | 49 | 320 | 5.0 | 10.0 | 0.00 | 0.46 | 0.46 | 96 | 1004.5 |
| 20260507005041 | 49 | 329 | 4.0 | 9.0 | 0.00 | 0.46 | 0.46 | 96 | 1004.5 |
| 20260507004556 | 50 | 314 | 3.0 | 9.0 | 0.00 | 0.46 | 0.46 | 96 | 1004.5 |
| 20260507004041 | 50 | 329 | 3.0 | 9.0 | 0.00 | 0.46 | 0.46 | 96 | 1004.4 |
| 20260507003546 | 50 | 306 | 4.0 | 10.0 | 0.00 | 0.46 | 0.46 | 96 | 1004.4 |
| 20260507003057 | 50 | 324 | 4.0 | 10.0 | 0.00 | 0.46 | 0.46 | 96 | 1004.2 |
| 20260507002541 | 50 | 309 | 4.0 | 9.0 | 0.00 | 0.46 | 0.46 | 96 | 1004.2 |
| 20260507002042 | 51 | 1 | 3.0 | 8.0 | 0.00 | 0.46 | 0.46 | 96 | 1004.1 |
| 20260507001602 | 51 | 356 | 3.0 | 9.0 | 0.00 | 0.46 | 0.46 | 96 | 1003.9 |
| 20260507001041 | 51 | 310 | 3.0 | 9.0 | 0.00 | 0.46 | 0.46 | 96 | 1003.8 |
| 20260507000547 | 51 | 343 | 3.0 | 8.0 | 0.00 | 0.46 | 0.46 | 96 | 1003.9 |
| 20260507000055 | 51 | 60 | 3.0 | 6.0 | 0.01 | 0.46 | 0.46 | 96 | 1003.9 |
| 20260506235542 | 52 | 2 | 2.0 | 6.0 | 0.01 | 0.46 | 0.46 | 96 | 1003.8 |
| 20260506235043 | 52 | 311 | 2.0 | 6.0 | 0.01 | 0.46 | 0.46 | 96 | 1003.7 |
| 20260506234556 | 52 | 31 | 3.0 | 6.0 | 0.01 | 0.46 | 0.46 | 96 | 1003.5 |
| 20260506234041 | 52 | 32 | 3.0 | 7.0 | 0.01 | 0.46 | 0.46 | 96 | 1003.4 |
| 20260506233542 | 53 | 305 | 2.0 | 7.0 | 0.01 | 0.46 | 0.46 | 96 | 1003.5 |
| 20260506233109 | 53 | 321 | 3.0 | 7.0 | 0.01 | 0.46 | 0.46 | 96 | 1003.3 |
| 20260506232542 | 54 | 13 | 3.0 | 10.0 | 0.01 | 0.46 | 0.46 | 96 | 1003.4 |
| 20260506232043 | 54 | 309 | 5.0 | 11.0 | 0.02 | 0.46 | 0.46 | 96 | 1003.3 |
| 20260506231552 | 55 | 350 | 5.0 | 11.0 | 0.02 | 0.46 | 0.46 | 96 | 1003.3 |
| 20260506231041 | 55 | 296 | 5.0 | 10.0 | 0.02 | 0.46 | 0.46 | 96 | 1003.2 |
| 20260506230540 | 56 | 303 | 5.0 | 10.0 | 0.02 | 0.46 | 0.46 | 95 | 1003.1 |
| 20260506230059 | 57 | 333 | 6.0 | 10.0 | 0.02 | 0.45 | 0.45 | 96 | 1003.1 |
| 20260506225541 | 59 | 278 | 2.0 | 6.0 | 0.02 | 0.45 | 0.45 | 97 | 1003.0 |
| 20260506225040 | 59 | 324 | 1.0 | 3.0 | 0.03 | 0.45 | 0.45 | 97 | 1002.9 |
| 20260506224552 | 59 | 0 | 0.0 | 1.0 | 0.03 | 0.45 | 0.45 | 97 | 1002.8 |
| 20260506224043 | 59 | 0 | 0.0 | 1.0 | 0.05 | 0.45 | 0.45 | 97 | 1002.7 |
| 20260506223543 | 59 | 0 | 0.0 | 0.0 | 0.05 | 0.45 | 0.45 | 97 | 1002.9 |
| 20260506223053 | 59 | 0 | 0.0 | 1.0 | 0.06 | 0.45 | 0.45 | 97 | 1002.9 |
| 20260506222542 | 59 | 0 | 0.0 | 2.0 | 0.07 | 0.45 | 0.45 | 97 | 1002.8 |
| 20260506222041 | 60 | 145 | 0.0 | 2.0 | 0.07 | 0.44 | 0.44 | 97 | 1002.8 |
| 20260506221558 | 60 | 145 | 0.0 | 2.0 | 0.09 | 0.44 | 0.44 | 97 | 1002.7 |
| 20260506221041 | 60 | 0 | 0.0 | 3.0 | 0.09 | 0.44 | 0.44 | 97 | 1002.8 |
| 20260506220543 | 59 | 38 | 0.0 | 3.0 | 0.09 | 0.44 | 0.44 | 97 | 1002.9 |
| 20260506220054 | 59 | 0 | 0.0 | 2.0 | 0.08 | 0.43 | 0.43 | 97 | 1002.8 |
| 20260506215544 | 59 | 0 | 0.0 | 3.0 | 0.09 | 0.46 | 0.43 | 97 | 1002.9 |
| 20260506215044 | 60 | 77 | 0.0 | 3.0 | 0.09 | 0.45 | 0.42 | 97 | 1002.9 |
| 20260506214552 | 59 | 66 | 0.0 | 1.0 | 0.08 | 0.44 | 0.41 | 97 | 1002.9 |
| 20260506214041 | 59 | 114 | 0.0 | 1.0 | 0.08 | 0.43 | 0.40 | 97 | 1002.9 |
| 20260506213543 | 59 | 0 | 0.0 | 6.0 | 0.08 | 0.43 | 0.40 | 97 | 1002.9 |
| 20260506213111 | 59 | 0 | 0.0 | 6.0 | 0.09 | 0.42 | 0.39 | 96 | 1003.1 |
| 20260506212544 | 59 | 61 | 1.0 | 6.0 | 0.10 | 0.41 | 0.38 | 96 | 1003.0 |
| 20260506212041 | 59 | 148 | 0.0 | 5.0 | 0.11 | 0.40 | 0.37 | 96 | 1003.0 |
| 20260506211548 | 59 | 149 | 1.0 | 5.0 | 0.09 | 0.38 | 0.35 | 96 | 1003.1 |
| 20260506211043 | 60 | 142 | 1.0 | 5.0 | 0.10 | 0.38 | 0.35 | 97 | 1003.1 |
| 20260506210544 | 59 | 0 | 1.0 | 6.0 | 0.11 | 0.38 | 0.35 | 96 | 1003.1 |
| 20260506210056 | 59 | 171 | 0.0 | 6.0 | 0.11 | 0.38 | 0.35 | 96 | 1003.2 |
| 20260506205544 | 59 | 155 | 1.0 | 3.0 | 0.10 | 0.37 | 0.34 | 96 | 1003.3 |
| 20260506205041 | 59 | 135 | 0.0 | 4.0 | 0.09 | 0.36 | 0.33 | 96 | 1003.4 |
| 20260506204551 | 59 | 146 | 1.0 | 4.0 | 0.10 | 0.36 | 0.33 | 96 | 1003.4 |
| 20260506204041 | 59 | 157 | 0.0 | 4.0 | 0.09 | 0.35 | 0.32 | 96 | 1003.4 |
| 20260506203541 | 59 | 0 | 0.0 | 4.0 | 0.10 | 0.35 | 0.32 | 96 | 1003.5 |
| 20260506203055 | 59 | 0 | 1.0 | 4.0 | 0.09 | 0.33 | 0.30 | 96 | 1003.5 |
| 20260506202545 | 60 | 128 | 0.0 | 4.0 | 0.06 | 0.30 | 0.27 | 96 | 1003.5 |
| 20260506202044 | 60 | 0 | 0.0 | 4.0 | 0.06 | 0.29 | 0.26 | 96 | 1003.6 |
| 20260506201553 | 60 | 157 | 1.0 | 5.0 | 0.07 | 0.29 | 0.26 | 96 | 1003.5 |
| 20260506201044 | 60 | 148 | 2.0 | 5.0 | 0.06 | 0.28 | 0.25 | 96 | 1003.6 |
| 20260506200544 | 60 | 128 | 1.0 | 6.0 | 0.05 | 0.27 | 0.24 | 96 | 1003.7 |
| 20260506200052 | 60 | 46 | 1.0 | 6.0 | 0.06 | 0.27 | 0.24 | 96 | 1003.6 |
| 20260506195543 | 60 | 139 | 1.0 | 4.0 | 0.06 | 0.27 | 0.24 | 96 | 1003.8 |
| 20260506195041 | 60 | 132 | 1.0 | 4.0 | 0.07 | 0.27 | 0.24 | 96 | 1003.8 |
| 20260506194555 | 60 | 0 | 1.0 | 4.0 | 0.06 | 0.26 | 0.23 | 96 | 1003.8 |
| 20260506194043 | 60 | 135 | 0.0 | 4.0 | 0.07 | 0.26 | 0.23 | 96 | 1003.9 |
| 20260506193542 | 60 | 129 | 0.0 | 4.0 | 0.06 | 0.25 | 0.22 | 96 | 1004.0 |
| 20260506193103 | 59 | 70 | 1.0 | 4.0 | 0.06 | 0.24 | 0.21 | 96 | 1004.0 |
| 20260506192542 | 59 | 129 | 0.0 | 3.0 | 0.06 | 0.24 | 0.21 | 96 | 1004.0 |
| 20260506192043 | 59 | 117 | 1.0 | 7.0 | 0.06 | 0.23 | 0.20 | 96 | 1004.0 |
| 20260506191551 | 59 | 137 | 2.0 | 7.0 | 0.05 | 0.22 | 0.19 | 96 | 1004.1 |
| 20260506191044 | 60 | 0 | 0.0 | 6.0 | 0.06 | 0.22 | 0.19 | 96 | 1004.2 |
| 20260506190543 | 60 | 130 | 0.0 | 6.0 | 0.06 | 0.22 | 0.19 | 96 | 1004.3 |
| 20260506190057 | 59 | 172 | 1.0 | 6.0 | 0.06 | 0.21 | 0.18 | 96 | 1004.1 |
| 20260506185543 | 60 | 172 | 0.0 | 6.0 | 0.07 | 0.21 | 0.18 | 96 | 1004.1 |
| 20260506185042 | 59 | 153 | 2.0 | 6.0 | 0.07 | 0.20 | 0.17 | 96 | 1004.2 |
| 20260506184557 | 59 | 149 | 2.0 | 5.0 | 0.07 | 0.20 | 0.17 | 96 | 1004.4 |
| 20260506184042 | 60 | 169 | 0.0 | 6.0 | 0.07 | 0.19 | 0.16 | 96 | 1004.4 |
| 20260506183543 | 59 | 209 | 1.0 | 9.0 | 0.08 | 0.19 | 0.16 | 96 | 1004.4 |
| 20260506183053 | 59 | 144 | 1.0 | 9.0 | 0.08 | 0.18 | 0.15 | 96 | 1004.5 |
| 20260506182543 | 59 | 153 | 0.0 | 4.0 | 0.09 | 0.18 | 0.15 | 96 | 1004.4 |
| 20260506182043 | 59 | 148 | 1.0 | 4.0 | 0.09 | 0.17 | 0.14 | 95 | 1004.6 |
| 20260506181552 | 59 | 131 | 0.0 | 4.0 | 0.09 | 0.17 | 0.14 | 95 | 1004.7 |
| 20260506181041 | 59 | 131 | 0.0 | 3.0 | 0.09 | 0.16 | 0.13 | 95 | 1004.8 |
| 20260506180546 | 59 | 154 | 1.0 | 3.0 | 0.09 | 0.16 | 0.13 | 95 | 1004.8 |
| 20260506175542 | 59 | 141 | 1.0 | 3.0 | 0.08 | 0.14 | 0.11 | 94 | 1005.0 |
| 20260506175044 | 59 | 130 | 1.0 | 3.0 | 0.08 | 0.13 | 0.10 | 94 | 1005.0 |
| 20260506174554 | 60 | 117 | 1.0 | 4.0 | 0.08 | 0.12 | 0.09 | 94 | 1005.0 |
| 20260506174044 | 60 | 132 | 1.0 | 4.0 | 0.08 | 0.12 | 0.09 | 94 | 1005.1 |
| 20260506173543 | 60 | 0 | 1.0 | 4.0 | 0.07 | 0.11 | 0.08 | 93 | 1005.1 |
| 20260506173059 | 60 | 139 | 1.0 | 3.0 | 0.07 | 0.10 | 0.07 | 93 | 1005.1 |
| 20260506172542 | 60 | 0 | 0.0 | 0.0 | 0.06 | 0.09 | 0.06 | 93 | 1005.2 |
| 20260506172043 | 60 | 0 | 0.0 | 0.0 | 0.05 | 0.08 | 0.05 | 92 | 1005.3 |
| 20260506171556 | 61 | 0 | 0.0 | 0.0 | 0.05 | 0.08 | 0.05 | 92 | 1005.3 |
| 20260506171045 | 61 | 0 | 0.0 | 0.0 | 0.04 | 0.07 | 0.04 | 91 | 1005.3 |
| 20260506170541 | 61 | 0 | 0.0 | 0.0 | 0.04 | 0.07 | 0.04 | 90 | 1005.4 |
| 20260506170105 | 61 | 0 | 0.0 | 0.0 | 0.03 | 0.06 | 0.03 | 89 | 1005.4 |
| 20260506165542 | 61 | 0 | 0.0 | 0.0 | 0.03 | 0.06 | 0.03 | 89 | 1005.4 |
| 20260506165047 | 61 | 0 | 0.0 | 0.0 | 0.02 | 0.05 | 0.02 | 88 | 1005.4 |
| 20260506164556 | 61 | 0 | 0.0 | 1.0 | 0.01 | 0.04 | 0.01 | 87 | 1005.4 |
| 20260506164045 | 62 | 0 | 0.0 | 1.0 | 0.01 | 0.04 | 0.01 | 86 | 1005.4 |
| 20260506163546 | 62 | 0 | 0.0 | 2.0 | 0.01 | 0.04 | 0.01 | 84 | 1005.5 |
| 20260506163111 | 62 | 0 | 0.0 | 2.0 | 0.00 | 0.03 | 0.00 | 84 | 1005.5 |
| 20260506162543 | 62 | 0 | 0.0 | 3.0 | 0.00 | 0.03 | 0.00 | 83 | 1005.5 |
| 20260506162046 | 62 | 0 | 0.0 | 3.0 | 0.00 | 0.03 | 0.00 | 84 | 1005.4 |
| 20260506161551 | 62 | 156 | 1.0 | 3.0 | 0.00 | 0.03 | 0.00 | 84 | 1005.6 |
| 20260506161044 | 62 | 147 | 2.0 | 5.0 | 0.00 | 0.03 | 0.00 | 84 | 1005.7 |
| 20260506160629 | 61 | 134 | 1.0 | 5.0 | 0.00 | 0.03 | 0.00 | 84 | 1005.7 |
| 20260506160055 | 61 | 133 | 1.0 | 4.0 | 0.00 | 0.03 | 0.00 | 84 | 1006.1 |
| 20260506155638 | 62 | 113 | 0.0 | 3.0 | 0.00 | 0.03 | 0.00 | 83 | 1006.5 |
| 20260506154044 | 62 | 138 | 0.0 | 3.0 | 0.00 | 0.03 | 0.00 | 81 | 1006.9 |
| 20260506153544 | 62 | 114 | 0.0 | 2.0 | 0.00 | 0.03 | 0.00 | 80 | 1007.0 |
| 20260506153107 | 62 | 0 | 0.0 | 3.0 | 0.00 | 0.03 | 0.00 | 81 | 1007.1 |
| 20260506152544 | 62 | 0 | 0.0 | 3.0 | 0.00 | 0.03 | 0.00 | 80 | 1007.0 |
| 20260506152044 | 62 | 130 | 0.0 | 2.0 | 0.00 | 0.03 | 0.00 | 79 | 1007.0 |
| 20260506151558 | 62 | 0 | 0.0 | 2.0 | 0.00 | 0.03 | 0.00 | 79 | 1006.9 |
| 20260506151042 | 62 | 0 | 0.0 | 5.0 | 0.00 | 0.03 | 0.00 | 79 | 1006.8 |
| 20260506150542 | 61 | 151 | 2.0 | 5.0 | 0.00 | 0.03 | 0.00 | 79 | 1006.8 |
| 20260506150101 | 61 | 130 | 0.0 | 5.0 | 0.00 | 0.03 | 0.00 | 79 | 1006.7 |
| 20260506145543 | 61 | 72 | 1.0 | 5.0 | 0.00 | 0.03 | 0.00 | 81 | 1006.7 |
| 20260506145042 | 61 | 0 | 1.0 | 4.0 | 0.00 | 0.03 | 0.00 | 80 | 1006.9 |
| 20260506144555 | 61 | 82 | 1.0 | 5.0 | 0.00 | 0.03 | 0.00 | 80 | 1006.9 |
| 20260506144044 | 61 | 143 | 1.0 | 5.0 | 0.00 | 0.03 | 0.00 | 80 | 1007.0 |
| 20260506143544 | 61 | 169 | 1.0 | 3.0 | 0.00 | 0.03 | 0.00 | 80 | 1007.0 |
| 20260506143103 | 61 | 0 | 1.0 | 3.0 | 0.00 | 0.03 | 0.00 | 79 | 1007.1 |
| 20260506142544 | 61 | 172 | 1.0 | 3.0 | 0.00 | 0.03 | 0.00 | 79 | 1007.0 |
| 20260506142043 | 61 | 91 | 1.0 | 3.0 | 0.00 | 0.03 | 0.00 | 78 | 1006.9 |
| 20260506141553 | 61 | 192 | 0.0 | 3.0 | 0.00 | 0.03 | 0.00 | 80 | 1006.9 |
| 20260506141048 | 61 | 0 | 0.0 | 4.0 | 0.00 | 0.03 | 0.00 | 79 | 1006.9 |
| 20260506140542 | 61 | 246 | 1.0 | 4.0 | 0.00 | 0.03 | 0.00 | 79 | 1006.9 |
| 20260506140100 | 61 | 147 | 1.0 | 3.0 | 0.00 | 0.03 | 0.00 | 80 | 1007.0 |
| 20260506135542 | 61 | 84 | 0.0 | 4.0 | 0.00 | 0.03 | 0.00 | 80 | 1006.8 |
| 20260506135042 | 61 | 0 | 1.0 | 4.0 | 0.00 | 0.03 | 0.00 | 80 | 1006.9 |
| 20260506134556 | 61 | 135 | 1.0 | 4.0 | 0.00 | 0.03 | 0.00 | 79 | 1007.0 |
| 20260506134044 | 61 | 0 | 1.0 | 3.0 | 0.00 | 0.03 | 0.00 | 79 | 1007.1 |
| 20260506133545 | 61 | 0 | 0.0 | 2.0 | 0.00 | 0.03 | 0.00 | 80 | 1007.2 |
| 20260506133057 | 61 | 0 | 0.0 | 1.0 | 0.00 | 0.03 | 0.00 | 81 | 1007.3 |
| 20260506132542 | 61 | 0 | 0.0 | 2.0 | 0.00 | 0.03 | 0.00 | 80 | 1007.3 |
| 20260506132043 | 61 | 55 | 0.0 | 2.0 | 0.00 | 0.03 | 0.00 | 81 | 1007.4 |
| 20260506131600 | 61 | 60 | 0.0 | 2.0 | 0.00 | 0.03 | 0.00 | 81 | 1007.2 |
| 20260506131043 | 60 | 0 | 0.0 | 1.0 | 0.00 | 0.03 | 0.00 | 82 | 1007.3 |
| 20260506130543 | 60 | 0 | 0.0 | 2.0 | 0.00 | 0.03 | 0.00 | 81 | 1007.4 |
| 20260506130054 | 60 | 155 | 0.0 | 2.0 | 0.00 | 0.03 | 0.00 | 82 | 1007.3 |
| 20260506125546 | 60 | 148 | 0.0 | 2.0 | 0.00 | 0.03 | 0.00 | 82 | 1007.2 |
| 20260506125047 | 60 | 0 | 0.0 | 3.0 | 0.00 | 0.03 | 0.00 | 82 | 1007.2 |
| 20260506124555 | 60 | 155 | 0.0 | 3.0 | 0.00 | 0.03 | 0.00 | 83 | 1007.3 |
| 20260506124042 | 60 | 0 | 0.0 | 2.0 | 0.00 | 0.03 | 0.00 | 82 | 1007.2 |
| 20260506123543 | 60 | 284 | 0.0 | 2.0 | 0.00 | 0.03 | 0.00 | 83 | 1007.0 |
| 20260506123052 | 60 | 0 | 1.0 | 4.0 | 0.00 | 0.03 | 0.00 | 83 | 1007.0 |
| 20260506122545 | 60 | 0 | 1.0 | 4.0 | 0.00 | 0.03 | 0.00 | 83 | 1007.2 |
| 20260506122042 | 59 | 158 | 0.0 | 4.0 | 0.00 | 0.03 | 0.00 | 83 | 1007.3 |
| 20260506121554 | 59 | 146 | 0.0 | 4.0 | 0.00 | 0.03 | 0.00 | 84 | 1007.3 |
| 20260506121044 | 59 | 139 | 0.0 | 2.0 | 0.00 | 0.03 | 0.00 | 83 | 1007.4 |
| 20260506120542 | 59 | 0 | 0.0 | 4.0 | 0.00 | 0.03 | 0.00 | 83 | 1007.5 |
| 20260506120058 | 59 | 137 | 0.0 | 5.0 | 0.00 | 0.03 | 0.00 | 84 | 1007.4 |
| 20260506115542 | 59 | 117 | 1.0 | 5.0 | 0.00 | 0.03 | 0.00 | 84 | 1007.4 |
| 20260506115043 | 59 | 131 | 1.0 | 5.0 | 0.00 | 0.03 | 0.00 | 85 | 1007.5 |
| 20260506114604 | 58 | 114 | 1.0 | 5.0 | 0.00 | 0.03 | 0.00 | 86 | 1007.4 |
| 20260506114049 | 58 | 182 | 1.0 | 4.0 | 0.00 | 0.03 | 0.00 | 87 | 1007.5 |
| 20260506113545 | 58 | 141 | 0.0 | 3.0 | 0.00 | 0.03 | 0.00 | 90 | 1007.4 |
| 20260506113055 | 57 | 137 | 0.0 | 1.0 | 0.00 | 0.03 | 0.00 | 93 | 1007.4 |
| 20260506112542 | 56 | 0 | 0.0 | 0.0 | 0.00 | 0.03 | 0.00 | 94 | 1007.4 |
| 20260506112044 | 56 | 0 | 0.0 | 1.0 | 0.00 | 0.03 | 0.00 | 94 | 1007.5 |
| 20260506111550 | 56 | 0 | 0.0 | 1.0 | 0.00 | 0.03 | 0.00 | 95 | 1007.4 |
| 20260506111042 | 55 | 0 | 0.0 | 0.0 | 0.00 | 0.03 | 0.00 | 95 | 1007.5 |
| 20260506110542 | 55 | 0 | 0.0 | 0.0 | 0.00 | 0.03 | 0.00 | 96 | 1007.4 |
| 20260506105543 | 54 | 0 | 0.0 | 0.0 | 0.00 | 0.03 | 0.00 | 96 | 1007.5 |
| 20260506105042 | 54 | 0 | 0.0 | 0.0 | 0.00 | 0.03 | 0.00 | 95 | 1007.5 |
| 20260506104553 | 54 | 0 | 0.0 | 0.0 | 0.00 | 0.03 | 0.00 | 95 | 1007.5 |
| 20260506104045 | 54 | 0 | 0.0 | 0.0 | 0.00 | 0.03 | 0.00 | 95 | 1007.4 |
| 20260506103547 | 54 | 0 | 0.0 | 1.0 | 0.00 | 0.03 | 0.00 | 96 | 1007.6 |
| 20260506103053 | 54 | 0 | 0.0 | 1.0 | 0.00 | 0.03 | 0.00 | 96 | 1007.6 |
| 20260506102545 | 54 | 0 | 0.0 | 1.0 | 0.00 | 0.03 | 0.00 | 95 | 1007.4 |
| 20260506102043 | 54 | 0 | 0.0 | 1.0 | 0.00 | 0.03 | 0.00 | 95 | 1007.4 |
| 20260506101601 | 54 | 0 | 0.0 | 1.0 | 0.00 | 0.03 | 0.00 | 95 | 1007.4 |
| 20260506101044 | 54 | 134 | 0.0 | 2.0 | 0.00 | 0.03 | 0.00 | 95 | 1007.4 |
| 20260506100542 | 54 | 134 | 0.0 | 2.0 | 0.00 | 0.03 | 0.00 | 95 | 1007.4 |
| 20260506100054 | 54 | 139 | 1.0 | 2.0 | 0.00 | 0.03 | 0.00 | 95 | 1007.3 |
| 20260506095545 | 54 | 0 | 1.0 | 1.0 | 0.00 | 0.03 | 0.00 | 95 | 1007.2 |
| 20260506095042 | 54 | 116 | 0.0 | 1.0 | 0.00 | 0.03 | 0.00 | 95 | 1007.3 |
| 20260506094621 | 54 | 0 | 0.0 | 0.0 | 0.00 | 0.03 | 0.00 | 95 | 1007.3 |
| 20260506094044 | 55 | 0 | 0.0 | 0.0 | 0.00 | 0.03 | 0.00 | 95 | 1007.3 |
| 20260506093546 | 55 | 0 | 0.0 | 0.0 | 0.00 | 0.03 | 0.00 | 94 | 1007.3 |
| 20260506093056 | 55 | 0 | 0.0 | 0.0 | 0.00 | 0.03 | 0.00 | 94 | 1007.2 |
| 20260506092545 | 55 | 0 | 0.0 | 0.0 | 0.00 | 0.03 | 0.00 | 94 | 1007.2 |
| 20260506092045 | 55 | 0 | 0.0 | 1.0 | 0.00 | 0.03 | 0.00 | 94 | 1007.3 |
| 20260506091556 | 55 | 0 | 0.0 | 1.0 | 0.00 | 0.03 | 0.00 | 94 | 1007.4 |
| 20260506091042 | 56 | 0 | 0.0 | 1.0 | 0.00 | 0.03 | 0.00 | 94 | 1007.2 |
| 20260506090543 | 56 | 116 | 0.0 | 1.0 | 0.00 | 0.03 | 0.00 | 94 | 1007.1 |
| 20260506090054 | 56 | 0 | 0.0 | 0.0 | 0.00 | 0.03 | 0.00 | 94 | 1007.4 |
| 20260506085542 | 56 | 0 | 0.0 | 0.0 | 0.00 | 0.03 | 0.00 | 94 | 1007.5 |
| 20260506085042 | 56 | 0 | 0.0 | 0.0 | 0.00 | 0.03 | 0.00 | 94 | 1007.5 |
| 20260506084554 | 56 | 0 | 0.0 | 0.0 | 0.00 | 0.03 | 0.00 | 94 | 1007.5 |
| 20260506084046 | 56 | 0 | 0.0 | 0.0 | 0.00 | 0.03 | 0.00 | 94 | 1007.6 |
| 20260506083542 | 56 | 0 | 0.0 | 0.0 | 0.00 | 0.03 | 0.00 | 94 | 1007.5 |
| 20260506083102 | 56 | 0 | 0.0 | 0.0 | 0.00 | 0.03 | 0.00 | 93 | 1007.5 |
| 20260506082545 | 56 | 0 | 0.0 | 1.0 | 0.00 | 0.03 | 0.00 | 93 | 1007.5 |
| 20260506082044 | 56 | 0 | 0.0 | 1.0 | 0.00 | 0.03 | 0.00 | 93 | 1007.5 |
| 20260506081558 | 56 | 116 | 0.0 | 1.0 | 0.00 | 0.03 | 0.00 | 92 | 1007.4 |
| 20260506081046 | 57 | 0 | 0.0 | 2.0 | 0.00 | 0.03 | 0.00 | 91 | 1007.6 |
| 20260506080543 | 57 | 0 | 0.0 | 2.0 | 0.00 | 0.03 | 0.00 | 91 | 1007.6 |
| 20260506073048 | 56 | 0 | 0.0 | 1.0 | 0.00 | 0.03 | 0.00 | 95 | 1007.6 |
| 20260506072545 | 56 | 0 | 0.0 | 2.0 | 0.00 | 0.03 | 0.00 | 95 | 1007.5 |
| 20260506072042 | 56 | 309 | 1.0 | 2.0 | 0.00 | 0.03 | 0.00 | 95 | 1007.5 |
| 20260506071553 | 56 | 309 | 0.0 | 0.0 | 0.00 | 0.03 | 0.00 | 95 | 1007.4 |
| 20260506071045 | 56 | 0 | 0.0 | 3.0 | 0.00 | 0.03 | 0.00 | 95 | 1007.4 |
| 20260506070545 | 56 | 0 | 0.0 | 3.0 | 0.00 | 0.03 | 0.00 | 95 | 1007.3 |
| 20260506062042 | 56 | 0 | 0.0 | 3.0 | 0.00 | 0.03 | 0.00 | 95 | 1007.2 |
| 20260506061558 | 56 | 17 | 0.0 | 2.0 | 0.00 | 0.03 | 0.00 | 95 | 1007.1 |
| 20260506061043 | 56 | 0 | 0.0 | 1.0 | 0.00 | 0.03 | 0.00 | 95 | 1007.1 |
| 20260506060542 | 56 | 136 | 0.0 | 1.0 | 0.00 | 0.03 | 0.00 | 95 | 1007.1 |
| 20260506051042 | 56 | 0 | 0.0 | 1.0 | 0.00 | 0.03 | 0.00 | 93 | 1007.3 |
| 20260506050545 | 57 | 0 | 0.0 | 1.0 | 0.00 | 0.03 | 0.00 | 94 | 1007.4 |
| 20260506045041 | 57 | 0 | 0.0 | 2.0 | 0.00 | 0.03 | 0.00 | 92 | 1007.1 |
| 20260506044551 | 57 | 0 | 1.0 | 2.0 | 0.00 | 0.03 | 0.00 | 93 | 1007.3 |
| 20260506044045 | 57 | 139 | 0.0 | 1.0 | 0.00 | 0.03 | 0.00 | 93 | 1007.0 |
| 20260506043545 | 57 | 0 | 0.0 | 1.0 | 0.00 | 0.03 | 0.00 | 93 | 1007.1 |
| 20260506043049 | 57 | 0 | 0.0 | 3.0 | 0.00 | 0.03 | 0.00 | 93 | 1007.0 |
| 20260506042545 | 57 | 340 | 1.0 | 3.0 | 0.00 | 0.03 | 0.00 | 92 | 1007.0 |
| 20260506042045 | 57 | 0 | 0.0 | 2.0 | 0.00 | 0.03 | 0.00 | 92 | 1007.0 |
| 20260506041550 | 58 | 252 | 0.0 | 2.0 | 0.00 | 0.03 | 0.00 | 92 | 1006.8 |
| 20260506041042 | 58 | 0 | 1.0 | 2.0 | 0.00 | 0.03 | 0.00 | 92 | 1007.0 |
| 20260506040542 | 58 | 0 | 0.0 | 1.0 | 0.00 | 0.03 | 0.00 | 91 | 1007.0 |
| 20260506040101 | 58 | 0 | 0.0 | 1.0 | 0.00 | 0.03 | 0.00 | 90 | 1007.0 |
| 20260506035542 | 58 | 0 | 0.0 | 1.0 | 0.00 | 0.03 | 0.03 | 89 | 1006.8 |
| 20260506035042 | 58 | 0 | 0.0 | 2.0 | 0.00 | 0.03 | 0.03 | 89 | 1006.9 |
| 20260506034604 | 58 | 0 | 0.0 | 2.0 | 0.00 | 0.03 | 0.03 | 89 | 1007.0 |
| 20260506034045 | 58 | 0 | 0.0 | 2.0 | 0.00 | 0.03 | 0.03 | 88 | 1007.1 |
| 20260506033542 | 58 | 143 | 1.0 | 2.0 | 0.00 | 0.03 | 0.03 | 88 | 1007.0 |
| 20260506033050 | 58 | 105 | 0.0 | 2.0 | 0.00 | 0.03 | 0.03 | 89 | 1007.0 |
| 20260506032542 | 58 | 0 | 0.0 | 1.0 | 0.00 | 0.03 | 0.03 | 89 | 1007.2 |
| 20260506032042 | 58 | 0 | 0.0 | 1.0 | 0.00 | 0.03 | 0.03 | 90 | 1007.1 |
| 20260506031600 | 58 | 140 | 0.0 | 0.0 | 0.00 | 0.03 | 0.03 | 89 | 1007.0 |
| 20260506031043 | 58 | 0 | 0.0 | 0.0 | 0.00 | 0.03 | 0.03 | 89 | 1007.2 |
| 20260506030544 | 58 | 0 | 0.0 | 0.0 | 0.00 | 0.03 | 0.03 | 89 | 1007.2 |
| 20260506030052 | 58 | 0 | 0.0 | 1.0 | 0.00 | 0.03 | 0.03 | 88 | 1007.2 |
| 20260506025542 | 58 | 140 | 0.0 | 2.0 | 0.00 | 0.03 | 0.03 | 88 | 1007.1 |
| 20260506025042 | 59 | 0 | 0.0 | 3.0 | 0.00 | 0.03 | 0.03 | 88 | 1007.1 |
| 20260506024556 | 59 | 141 | 2.0 | 3.0 | 0.00 | 0.03 | 0.03 | 88 | 1006.9 |
| 20260506024042 | 58 | 115 | 0.0 | 1.0 | 0.00 | 0.03 | 0.03 | 88 | 1006.8 |
| 20260506023546 | 59 | 0 | 0.0 | 1.0 | 0.00 | 0.03 | 0.03 | 87 | 1006.8 |
| 20260506023053 | 59 | 0 | 0.0 | 1.0 | 0.00 | 0.03 | 0.03 | 85 | 1006.7 |
| 20260506022544 | 59 | 0 | 0.0 | 2.0 | 0.00 | 0.03 | 0.03 | 85 | 1006.7 |
| 20260506022042 | 59 | 143 | 0.0 | 2.0 | 0.00 | 0.03 | 0.03 | 85 | 1006.7 |
| 20260506021557 | 59 | 120 | 1.0 | 3.0 | 0.00 | 0.03 | 0.03 | 85 | 1006.7 |
| 20260506021042 | 59 | 0 | 1.0 | 5.0 | 0.00 | 0.03 | 0.03 | 86 | 1006.7 |
| 20260506020545 | 59 | 134 | 2.0 | 5.0 | 0.00 | 0.03 | 0.03 | 86 | 1006.7 |
| 20260506020100 | 59 | 103 | 2.0 | 5.0 | 0.00 | 0.03 | 0.03 | 85 | 1006.6 |
| 20260506015545 | 60 | 147 | 2.0 | 4.0 | 0.00 | 0.03 | 0.03 | 85 | 1006.7 |
| 20260506015045 | 60 | 116 | 1.0 | 3.0 | 0.00 | 0.03 | 0.03 | 85 | 1006.9 |
| 20260506014555 | 60 | 125 | 1.0 | 3.0 | 0.00 | 0.03 | 0.03 | 83 | 1006.7 |
| 20260506014048 | 61 | 110 | 0.0 | 3.0 | 0.00 | 0.03 | 0.03 | 83 | 1006.9 |
| 20260506013544 | 61 | 146 | 1.0 | 3.0 | 0.00 | 0.03 | 0.03 | 82 | 1006.8 |
| 20260506013055 | 60 | 127 | 1.0 | 2.0 | 0.00 | 0.03 | 0.03 | 83 | 1006.8 |
| 20260506012542 | 60 | 0 | 0.0 | 3.0 | 0.00 | 0.03 | 0.03 | 85 | 1007.0 |
| 20260506012042 | 60 | 130 | 1.0 | 3.0 | 0.00 | 0.03 | 0.03 | 84 | 1006.8 |
| 20260506011556 | 60 | 140 | 1.0 | 2.0 | 0.00 | 0.03 | 0.03 | 84 | 1006.8 |
| 20260506011042 | 60 | 0 | 1.0 | 2.0 | 0.00 | 0.03 | 0.03 | 85 | 1006.6 |